Jacksonville, FL

2:24 AM EST on December 03, 2016 (GMT -0500)
Jacksonville Naval Air Station

Weather History for KNIP - April, 2014

Change the Weather History Date:

Sunday, April 13, 2014

  Actual Average Record
Temperature  
Mean Temperature 74 °F -  
Max Temperature 82 °F 77 °F 88 °F (2001)
Min Temperature 66 °F 59 °F 52 °F (2004)
Cooling Degree Days 9    
Growing Degree Days 24 (Base 50)    
Moisture  
Dew Point 61 °F    
Average Humidity 66    
Maximum Humidity 84    
Minimum Humidity 44    
Precipitation  
Precipitation 0.00 in - - ()
Sea Level Pressure  
Sea Level Pressure 30.12 in    
Wind  
Wind Speed 7 mph (East)    
Max Wind Speed 17 mph    
Max Gust Speed -    
Visibility 10 miles    
Events      
Averages and records for this station are not official NWS values.
T = Trace of Precipitation, MM = Missing Value Source: NWS Daily Summary

Daily Weather History Graph

Daily Weather History Graph

Search for Another Location

Airport or City:

Trip Planner

Search our weather history database for the weather conditions in past years. The results will help you decide how hot, cold, wet, or windy it might be!

Date:

Astronomy

Apr. 13, 2014 Rise Set
Actual Time 7:01 AM EDT 7:52 PM EDT
Civil Twilight 6:37 AM EDT 8:17 PM EDT
Nautical Twilight 6:08 AM EDT 8:46 PM EDT
Astronomical Twilight 5:38 AM EDT 9:16 PM EDT
Moon 6:34 PM EDT (4/13) 5:52 AM EDT (4/13)
Length of Visible Light 13h 40m
Length of Day
12h 51m
Waxing Gibbous, 97% of the Moon is Illuminated
Apr 13
Waxing Gibbous
Apr 15
Full
Apr 22
Last Quarter
Apr 29
New
May 6
First Quarter

Hourly Weather History & Observations

Time (EDT) Temp. Heat Index Dew Point Humidity Pressure Visibility Wind Dir Wind Speed Gust Speed Precip Events Conditions
12:53 AM 69.1 °F - 61.0 °F 75% 30.17 in 10.0 mi East 5.8 mph - N/A   Partly Cloudy
1:53 AM 69.1 °F - 62.1 °F 78% 30.16 in 10.0 mi East 5.8 mph - N/A   Clear
2:53 AM 68.0 °F - 62.1 °F 81% 30.15 in 10.0 mi East 4.6 mph - N/A   Partly Cloudy
3:53 AM 68.0 °F - 62.1 °F 81% 30.14 in 10.0 mi East 3.5 mph - N/A   Partly Cloudy
4:53 AM 66.9 °F - 62.1 °F 84% 30.13 in 10.0 mi East 3.5 mph - N/A   Partly Cloudy
5:53 AM 66.9 °F - 62.1 °F 84% 30.14 in 10.0 mi East 3.5 mph - N/A   Clear
6:53 AM 66.9 °F - 62.1 °F 84% 30.15 in 10.0 mi East 3.5 mph - N/A   Partly Cloudy
7:53 AM 68.0 °F - 63.0 °F 84% 30.16 in 10.0 mi Calm Calm - N/A   Partly Cloudy
8:53 AM 71.1 °F - 62.1 °F 73% 30.17 in 10.0 mi SE 6.9 mph - N/A   Partly Cloudy
9:53 AM 75.0 °F - 61.0 °F 62% 30.18 in 10.0 mi ESE 10.4 mph - N/A   Partly Cloudy
10:53 AM 77.0 °F - 59.0 °F 54% 30.18 in 10.0 mi ESE 10.4 mph - N/A   Partly Cloudy
11:53 AM 79.0 °F - 57.9 °F 48% 30.17 in 10.0 mi ESE 6.9 mph - N/A   Scattered Clouds
12:53 PM 80.1 °F 80.6 °F 57.9 °F 47% 30.14 in 10.0 mi East 8.1 mph - N/A   Scattered Clouds
1:53 PM 81.0 °F 81.1 °F 57.9 °F 45% 30.13 in 10.0 mi East 8.1 mph - N/A   Scattered Clouds
2:53 PM 82.0 °F 82.1 °F 59.0 °F 45% 30.11 in 10.0 mi ESE 10.4 mph - N/A   Scattered Clouds
3:53 PM 82.0 °F 82.0 °F 57.9 °F 44% 30.09 in 10.0 mi ESE 10.4 mph - N/A   Mostly Cloudy
4:53 PM 81.0 °F 81.3 °F 59.0 °F 47% 30.07 in 10.0 mi East 16.1 mph - N/A   Mostly Cloudy
5:53 PM 79.0 °F - 59.0 °F 50% 30.06 in 10.0 mi ESE 16.1 mph - N/A   Mostly Cloudy
6:53 PM 77.0 °F - 59.0 °F 54% 30.07 in 10.0 mi ESE 17.3 mph - N/A   Mostly Cloudy
7:53 PM 75.0 °F - 61.0 °F 62% 30.07 in 10.0 mi East 11.5 mph - N/A   Mostly Cloudy
8:53 PM 73.0 °F - 62.1 °F 68% 30.06 in 10.0 mi East 5.8 mph - N/A   Mostly Cloudy
9:53 PM 72.0 °F - 62.1 °F 71% 30.08 in 10.0 mi East 8.1 mph - N/A   Scattered Clouds
10:53 PM 72.0 °F - 64.0 °F 76% 30.08 in 10.0 mi East 5.8 mph - N/A   Mostly Cloudy
11:53 PM 71.1 °F - 64.9 °F 81% 30.06 in 10.0 mi ESE 6.9 mph - N/A   Mostly Cloudy